Location: Bijele Vode
(45.2833°N, 16.2000°E)
Time: 06:25:52
(UTC+00:00)

Oscar 11 - Visible Passes

Search period start: 08 December 2021 00:00
Search period end: 18 December 2021 00:00
Orbit: 613 x 624 km, 97.6° (Epoch: 07 December)

Date Brightness Start Highest point End Pass type
(mag) Time Alt. Az. Time Alt. Az. Time Alt. Az.
08 Dec 7.0 04:28:53 10° NNE 04:33:15 87° WNW 04:37:34 10° SSW visible
09 Dec 10.1 03:11:11 10° NE 03:13:35 14° E 03:15:58 10° ESE visible
09 Dec 7.0 04:45:48 10° N 04:50:05 58° WNW 04:54:18 10° SSW visible
09 Dec 7.8 15:41:52 10° S 15:46:10 61° W 15:50:30 10° NNW visible
10 Dec 9.5 03:27:16 10° NE 03:30:36 21° E 03:33:54 10° SE visible
10 Dec 7.5 05:02:49 10° N 05:06:51 38° WNW 05:10:51 10° SW visible
10 Dec 8.7 15:58:59 10° SSW 16:03:04 40° W 16:07:11 10° NNW visible
11 Dec 8.9 03:43:41 10° NNE 03:47:34 31° E 03:51:24 10° SSE visible
11 Dec 8.0 05:19:56 10° N 05:23:35 27° WNW 05:27:11 10° SW visible
11 Dec 9.4 16:16:19 10° SSW 16:20:01 27° W 16:23:45 10° NW visible
12 Dec 8.1 04:00:18 10° NNE 04:04:30 47° E 04:08:39 10° S visible
12 Dec 8.4 05:37:15 10° NNW 05:40:16 19° WNW 05:43:18 10° WSW visible
12 Dec 10.1 16:33:57 10° SW 16:37:00 18° W 16:40:04 10° NW visible
13 Dec 7.2 04:17:03 10° NNE 04:21:23 72° ESE 04:25:41 10° S visible
13 Dec 10.3 16:52:12 10° WSW 16:54:02 12° W 16:55:52 10° WNW visible
14 Dec 10.4 03:00:26 10° ENE 03:01:35 11° E 03:02:43 10° ESE visible
14 Dec 6.9 04:33:53 10° N 04:38:14 76° WNW 04:42:31 10° SSW visible
15 Dec 9.9 03:15:51 10° NE 03:18:37 16° E 03:21:22 10° SE visible
15 Dec 7.2 04:50:50 10° N 04:55:02 50° WNW 04:59:11 10° SSW visible
15 Dec 8.1 15:46:55 10° S 15:51:10 52° W 15:55:26 10° NNW visible
16 Dec 9.3 03:32:04 10° NE 03:35:37 24° E 03:39:08 10° SSE visible
16 Dec 7.6 05:07:53 10° N 05:11:47 34° WNW 05:15:40 10° SW visible
16 Dec 8.9 16:04:06 10° SSW 16:08:04 35° W 16:12:05 10° NNW visible
17 Dec 8.6 03:48:34 10° NNE 03:52:34 36° E 03:56:32 10° SSE visible
17 Dec 8.1 05:25:03 10° NNW 05:28:30 24° WNW 05:31:56 10° WSW visible
17 Dec 9.7 16:21:31 10° SSW 16:25:02 24° W 16:28:34 10° NW visible
